Weather History for Kecskemet, Hungary

Change the Weather History Date:

Saturday, April 26, 2014

  Actual Average (LHBP) Record (LHBP)
Temperature  
Mean Temperature 61 °F -  
Max Temperature 68 °F 65 °F 82 °F (2013)
Min Temperature 54 °F 43 °F 39 °F (1997)
Degree Days  
Heating Degree Days 4    
Growing Degree Days 11 (Base 50)    
Moisture  
Dew Point 53 °F    
Average Humidity 81    
Maximum Humidity 100    
Minimum Humidity 41    
Precipitation  
Precipitation 0.00 in - - ()
Sea Level Pressure  
Sea Level Pressure 29.92 in    
Wind  
Wind Speed 4 mph ()    
Max Wind Speed 9 mph    
Max Gust Speed -    
Visibility 5.3 miles    
Events Fog , Rain , Thunderstorm    
Averages and records for this station are not official NWS values.
T = Trace of Precipitation, MM = Missing Value Source: Averaged Metar Reports

Daily Weather History Graph

Daily Weather History Graph

Search for Another Location

Airport:

Trip Planner

Search our weather history database for the weather conditions in past years. The results will help you decide how hot, cold, wet, or windy it might be!

Date:

Astronomy

Apr. 26, 2014 Rise Set
Actual Time 5:34 AM CEST 7:44 PM CEST
Civil Twilight 5:01 AM CEST 8:17 PM CEST
Nautical Twilight 4:20 AM CEST 8:58 PM CEST
Astronomical Twilight 3:34 AM CEST 9:44 PM CEST
Moon 4:00 AM CEST (4/26) 4:41 PM CEST (4/26)
Length of Visible Light 15h 16m
Length of Day
14h 09m
Waning Crescent, 10% of the Moon is Illuminated
Apr 26
Waning Crescent
Apr 29
New
May 7
First Quarter
May 14
Full
May 21
Last Quarter

Hourly Weather History & Observations

Time (CEST) Temp. Dew Point Humidity Pressure Visibility Wind Dir Wind Speed Gust Speed Precip Events Conditions
12:00 AM 56 °F 54 °F 90% 29.95 in 5 mi North 2.2 mph - - Rain Light Rain
12:15 AM 55.4 °F 53.6 °F 94% 29.92 in 5.0 mi NNE 2.2 mph - N/A   Overcast
12:45 AM 55.4 °F 53.6 °F 94% 29.92 in 5.0 mi NNE 4.5 mph - N/A   Overcast
12:57 AM 55.4 °F 53.6 °F 94% 29.92 in 5.0 mi NNE 4.5 mph - N/A Rain Light Rain
1:00 AM 56 °F 54 °F 90% 29.95 in 5 mi NNE 4.5 mph - -   Partly Cloudy
1:15 AM 55.4 °F 53.6 °F 94% 29.92 in 5.0 mi ENE 2.2 mph - N/A Rain Light Rain
1:45 AM 55.4 °F 53.6 °F 94% 29.92 in 5.0 mi ENE 2.2 mph - N/A   Overcast
2:00 AM 56 °F 54 °F 90% 29.88 in 5 mi South 2.2 mph - -   Scattered Clouds
2:15 AM 55.4 °F 53.6 °F 94% 29.92 in 3.7 mi NE 2.2 mph - N/A Rain Light Rain
2:45 AM 55.4 °F 53.6 °F 94% 29.92 in 3.1 mi ENE 2.2 mph - N/A Rain Light Rain
3:00 AM 56 °F 54 °F 93% 29.93 in 3 mi ENE 2.2 mph - - Rain Light Rain
3:15 AM 55.4 °F 53.6 °F 94% 29.92 in 2.5 mi ESE 2.2 mph - N/A Rain Light Rain
3:28 AM 55.4 °F 53.6 °F 94% 29.92 in 1.9 mi Calm Calm - N/A   Overcast
3:45 AM - - N/A% - 1.9 mi Variable 4.5 mph - N/A Rain Light Rain
4:00 AM 55 °F 54 °F 96% 29.93 in 1 mi East 4.5 mph - - Rain Light Rain
4:04 AM 55.4 °F 53.6 °F 94% 29.92 in 0.9 mi East 2.2 mph - N/A   Overcast
4:15 AM 55.4 °F 53.6 °F 94% 29.92 in 0.6 mi Calm Calm - N/A   Overcast
4:39 AM 55.4 °F 53.6 °F 94% 29.92 in 0.5 mi ENE 2.2 mph - N/A Fog Fog
4:45 AM - - N/A% - 0.9 mi Variable 4.5 mph - N/A Fog , Rain Light Fog
5:00 AM 55 °F 54 °F 95% 29.92 in 0 mi ENE 2.2 mph - - Fog Partial Fog
5:15 AM 55.4 °F 53.6 °F 94% 29.92 in 0.5 mi ENE 2.2 mph - N/A Fog Fog
5:31 AM 55.4 °F 53.6 °F 94% 29.92 in 0.6 mi ENE 2.2 mph - N/A   Overcast
5:45 AM 55.4 °F 55.4 °F 100% 29.92 in 0.7 mi ENE 4.5 mph - N/A   Overcast
5:51 AM 55.4 °F 55.4 °F 100% 29.92 in 0.9 mi East 4.5 mph - N/A   Overcast
6:00 AM 55 °F 54 °F 98% 29.93 in 1 mi ENE 4.5 mph - - Fog Light Fog
6:15 AM 55.4 °F 55.4 °F 100% 29.92 in 0.9 mi East 4.5 mph - N/A   Overcast
6:45 AM - - N/A% - 1.9 mi Variable 4.5 mph - N/A   Overcast
7:00 AM 56 °F 55 °F 95% 29.94 in 1 mi East 4.5 mph - -   Mist
7:15 AM 55.4 °F 55.4 °F 100% 29.92 in 1.9 mi ENE 4.5 mph - N/A   Overcast
7:45 AM 57.2 °F 55.4 °F 94% 29.95 in 2.2 mi East 4.5 mph - N/A   Overcast
8:00 AM 57 °F 55 °F 92% 29.95 in 2 mi East 4.5 mph - -   Mist
8:15 AM 57.2 °F 55.4 °F 94% 29.95 in 2.5 mi ENE 6.7 mph - N/A   Overcast
8:45 AM 57.2 °F 55.4 °F 94% 29.95 in 1.9 mi ESE 4.5 mph - N/A Rain Light Rain
8:51 AM - - N/A% - 4.3 mi ESE 6.7 mph - N/A   Overcast
9:00 AM 57 °F 55 °F 92% 29.96 in 2 mi ESE 4.5 mph - - Rain Light Rain
9:15 AM 57.2 °F 55.4 °F 94% 29.95 in 1.9 mi ESE 4.5 mph - N/A   Overcast
9:43 AM 59.0 °F 55.4 °F 88% 29.95 in 3.1 mi East 4.5 mph - N/A   Overcast
9:45 AM - - N/A% - 6.2 mi ESE 6.7 mph - N/A   Mostly Cloudy
10:00 AM 58 °F 56 °F 90% 29.96 in 3 mi East 4.5 mph - - Rain Light Rain
10:15 AM 59.0 °F 55.4 °F 88% 29.95 in 5.0 mi East 6.7 mph - N/A   Mostly Cloudy
10:45 AM 60.8 °F 55.4 °F 82% 29.95 in 6.2 mi East 6.7 mph - N/A   Mostly Cloudy
11:00 AM 60 °F 55 °F 78% 29.96 in 6 mi East 6.7 mph - -   Partly Cloudy
11:15 AM 60.8 °F 55.4 °F 82% 29.95 in 6.2 mi East 4.5 mph - N/A   Mostly Cloudy
11:45 AM 62.6 °F 53.6 °F 72% 29.95 in 6.2 mi ESE 4.5 mph - N/A   Mostly Cloudy
12:00 PM 62 °F 54 °F 68% 29.95 in 9 mi ESE 4.5 mph - -   Mostly Cloudy
12:15 PM 62.6 °F 53.6 °F 72% 29.95 in 6.2 mi SE 4.5 mph - N/A   Mostly Cloudy
12:45 PM - - N/A% - 6.2 mi East 6.7 mph - N/A   Mostly Cloudy
1:00 PM 64 °F 52 °F 55% 29.94 in 12 mi ESE 4.5 mph - -   Mostly Cloudy
1:15 PM 64.4 °F 51.8 °F 64% 29.92 in 6.2 mi SSE 2.2 mph - N/A   Scattered Clouds
1:45 PM 66.2 °F 51.8 °F 60% 29.92 in 6.2 mi South 6.7 mph - N/A   Scattered Clouds
2:00 PM 66 °F 51 °F 49% 29.93 in 16 mi South 6.7 mph - -   Partly Cloudy
2:15 PM 66.2 °F 51.8 °F 60% 29.92 in 6.2 mi South 4.5 mph - N/A   Scattered Clouds
2:45 PM 66.2 °F 50.0 °F 56% 29.92 in 6.2 mi SSE 6.7 mph - N/A   Scattered Clouds
3:00 PM 66 °F 51 °F 48% 29.91 in 19 mi SSE 6.7 mph - -   Scattered Clouds
3:15 PM 66.2 °F 48.2 °F 52% 29.89 in 6.2 mi South 6.7 mph - N/A   Partly Cloudy
3:45 PM - - N/A% - 1.9 mi SE 6.7 mph - N/A Rain , Thunderstorm Rain Showers
4:00 PM 67 °F 50 °F 45% 29.89 in 19 mi South 6.7 mph - -   Scattered Clouds
4:15 PM 68.0 °F 50.0 °F 52% 29.89 in 6.2 mi SSE 6.7 mph - N/A   Scattered Clouds
4:45 PM 68.0 °F 50.0 °F 52% 29.89 in 6.2 mi ESE 4.5 mph - N/A   Scattered Clouds
5:00 PM 68 °F 49 °F 41% 29.88 in 19 mi ESE 4.5 mph - -   Scattered Clouds
5:15 PM 66.2 °F 50.0 °F 56% 29.86 in 6.2 mi East 6.7 mph - N/A   Scattered Clouds
5:45 PM 66.2 °F 50.0 °F 56% 29.86 in 6.2 mi ESE 6.7 mph - N/A   Scattered Clouds
6:00 PM 66 °F 50 °F 46% 29.88 in 19 mi ESE 6.7 mph - -   Scattered Clouds
6:15 PM 66.2 °F 50.0 °F 56% 29.86 in 6.2 mi ESE 8.9 mph - N/A   Scattered Clouds
6:45 PM - - N/A% - 3.1 mi East 4.5 mph - N/A   Clear
7:00 PM 64 °F 55 °F 64% 29.87 in 16 mi East 6.7 mph - -   Scattered Clouds
7:15 PM 62.6 °F 55.4 °F 77% 29.86 in - ENE 6.7 mph - N/A   Clear
7:45 PM 60.8 °F 53.6 °F 77% 29.89 in - ENE 4.5 mph - N/A   Clear
8:00 PM 60 °F 54 °F 75% 29.88 in 12 mi ENE 4.5 mph - -   Scattered Clouds
8:15 PM 59.0 °F 55.4 °F 88% 29.89 in - East 4.5 mph - N/A   Clear
8:45 PM 59.0 °F 53.6 °F 82% 29.89 in - East 4.5 mph - N/A   Clear
9:00 PM 58 °F 54 °F 82% 29.89 in 12 mi East 4.5 mph - -   Partly Cloudy
9:15 PM 55.4 °F 53.6 °F 94% 29.89 in - ENE 4.5 mph - N/A   Clear
9:45 PM - - N/A% - 1.9 mi SE 4.5 mph - N/A   Mist
10:00 PM 55 °F 53 °F 88% 29.89 in 6 mi ENE 4.5 mph - -   Scattered Clouds
10:15 PM 55.4 °F 51.8 °F 88% 29.89 in - ENE 4.5 mph - N/A   Clear
10:45 PM 55.4 °F 51.8 °F 88% 29.89 in - ENE 2.2 mph - N/A   Clear
11:00 PM 55 °F 52 °F 88% 29.90 in 6 mi ENE 2.2 mph - -   Clear
11:15 PM 55.4 °F 53.6 °F 94% 29.89 in - Calm Calm - N/A   Clear
11:45 PM 55.4 °F 53.6 °F 94% 29.89 in - Calm Calm - N/A   Clear